Regional Weather Roundup
Issued by NWS

Home | Current Version | Previous Version | Text Only | Print | Product List | Glossary Off
Versions: 1 2 3 4 5 6 7 8 9 10 11 12 13 14 15 16 17 18 19 20 21 22 23 24 25 26 27 28 29 30 31 32 33 34 35 36 37 38 39 40 41 42 43 44 45 46 47 48 49 50

000
ASUS44 KMEG 181910
RWRTN
TENNESSEE HOURLY STATE WEATHER ROUNDUP
NATIONAL WEATHER SERVICE MEMPHIS TN
200 PM CDT WED OCT 18 2017

TNZ002-004-019-021-049-052-054-088>092-182000-
WEST TENNESSEE

CITY           SKY/WX    TMP DP  RH WIND       PRES   REMARKS
MEMPHIS INTL   SUNNY     72  48  42 VRB5      30.21F
NWS MEMPHIS      N/A     73 N/A N/A MISG        N/A
JACKSON        SUNNY     70  48  45 VRB3      30.23F
SOMERVILLE     SUNNY     72  46  40 VRB5G12   30.21F
COVINGTON      SUNNY     72  48  43 SW9       30.21F
UNION CITY     SUNNY     72  48  43 S12G17    30.21F
BOLIVAR        SUNNY     72  46  40 SE9       30.22F
PARIS          SUNNY     70  48  46 SE8       30.22F
HUNTINGDON     SUNNY     70  46  43 S9        30.22F
LEXINGTON      SUNNY     72  46  40 CALM      30.24F
SELMER         SUNNY     70  45  40 SE8       30.24F
SAVANNAH       SUNNY     72  45  37 VRB5G12   30.24F
$$

TNZ008-025-027-028-033-062-065-066-182000-
NORTH MIDDLE TENNESSEE

CITY           SKY/WX    TMP DP  RH WIND       PRES   REMARKS
NASHVILLE      MOSUNNY   71  41  33 S6        30.27F
PORTLAND       SUNNY     68  45  42 S10       30.26F HAZE
CLARKSVILLE    SUNNY     70  44  39 SE8       30.24F
SMYRNA         SUNNY     71  43  36 VRB6      30.27F
COOKEVILLE     SUNNY     70  39  32 N5        30.27F
GALLATIN       SUNNY     70  43  37 VRB7      30.29F
CROSSVILLE     SUNNY     66  42  41 MISG      30.30F
$$

TNZ061-075-076-078-094-096-097-182000-
SOUTH MIDDLE TENNESSEE

CITY           SKY/WX    TMP DP  RH WIND       PRES   REMARKS
FAYETTEVILLE   SUNNY     68  43  40 SE8       30.27F
TULLAHOMA      SUNNY     70  37  30 S5        30.29F
WINCHESTER     SUNNY     70  45  40 SE6         N/A
COLUMBIA       SUNNY     70  43  37 S8        30.24F
SHELBYVILLE    SUNNY     68  45  42 VRB5      30.26F
$$

TNZ017-018-042-046-047-182000-
NORTHEAST TENNESSEE

CITY           SKY/WX    TMP DP  RH WIND       PRES   REMARKS
TRI CITIES     MOSUNNY   69  43  38 VRB3      30.30F
ELIZABETHTON   SUNNY     72  41  33 VRB5      30.29F
$$

TNZ012-013-036-069-073-074-182000-
CENTRAL EAST TENNESSEE

CITY           SKY/WX    TMP DP  RH WIND       PRES   REMARKS
KNOXVILLE      MOSUNNY   67  48  50 CALM      30.29F
OAK RIDGE      SUNNY     66  48  52 CALM      30.30F
DOWNTOWN KNOXV SUNNY     70  48  46 CALM      30.30F
GATLINBURG     SUNNY     68  45  42 CALM      30.29F
MORRISTOWN     SUNNY     68  46  45 W6        30.30F
JACKSBORO      SUNNY     66  48  52 CALM      30.33F
$$

TNZ083-085-099-182000-
SOUTHEAST TENNESSEE

CITY           SKY/WX    TMP DP  RH WIND       PRES   REMARKS
CHATTANOOGA    MOSUNNY   70  42  36 CALM      30.29F
DAYTON         CLEAR     66  52  59 CALM      30.28F
$$

SKY/WX REPORTED AS FAIR MEANS FEW OR NO CLOUDS BELOW
12 THOUSAND FEET.





USA.gov is the U.S. government's official web portal to all federal, state and local government web resources and services.